Tracking 29892 objects as of 21-Nov-2024
HD Live streaming from Space Station
objects crossing your sky now

COSMOS 1998

Track COSMOS 1998 now!
10-day predictions
COSMOS 1998 is classified as:


NORAD ID: 19789
Int'l Code: 1989-009E
Perigee: 1,396.9 km
Apogee: 1,422.9 km
Inclination: 82.6 °
Period: 113.8 minutes
Semi major axis: 7780 km
RCS: 1.1762 m2 (large)
Launch date: February 10, 1989
Source: Commonwealth of Independent States (former USSR) (CIS)
Launch site: PLESETSK MISSILE AND SPACE COMPLEX (PKMTR)
Your satellite tracking list
Your tracking list is empty




NASA's NSSDC Master Catalog

Two Line Element Set (TLE):
1 19789U 89009E   24325.47174240  .00000025  00000-0  78062-4 0  9999
2 19789  82.6110 337.7206 0016737 144.9174 215.3025 12.64911666651480
Source of the keplerian elements: AFSPC